ALOS-2

Last updated on Thu Nov 21 2024 00:02:13 GMT+0000 (Coordinated Universal Time)

1 39766U 14029A 24325.54497866 .00004296 00000+0 58170-3 0 9996 2 39766 97.9230 59.9472 0001408 100.7661 259.3709 14.79478176566795
UTC large
Height (km)
Speed (km/s)
/
Latitude / Longitude
Inclination (degrees)
Orbital Period (minutes)
Azimuth
Elevation
Range (km)
Doppler Factor

Next 0 passes for location: London (51.5072 / 0.1276)

Sorry there are no passes over London.